Вернуться в каталог

6GSTARLAB

АктивенСвязьSSO
NORAD 66683·PAYLOAD·🇪🇸 Spain

Запущен Nov 28, 2025 с Vandenberg Space Force Base

Loading…

Ближайшие Пролёты (ближайшие 24 часа)

TLE

СвежийSource: Space-Track

Эпоха: Sep 14, 2026, 11:20 UTC

1 66683U 25276T   26257.47236558  .00002271  00000-0  11231-3 0  9996
2 66683  97.4168 329.2269 0007012  54.1769 306.0116 15.18815694 43957

Отслеживайте 6GSTARLAB в реальном времени с AllMySat

Download on the App Store